Preview of NWS' New Version of Forecast
This preview is not operational and should not be used for support decisions.

Regional Weather Roundup (RWR)

Issued by Philadelphia/Mt Holly (PHI)

                            
000
ASUS41 KPHI 170712
RWRPHI

REGIONAL WEATHER ROUNDUP
NATIONAL WEATHER SERVICE MOUNT HOLLY NJ
300 AM EDT TUE SEP 17 2019

NOTE:  "FAIR" INDICATES FEW OR NO CLOUDS BELOW 12,000 FEET WITH NO
SIGNIFICANT WEATHER AND/OR OBSTRUCTIONS TO VISIBILITY.

 * = STATION DOES NOT REPORT PRECIPITATION (E.G. RAIN, SNOW, ETC.) 
        OR FOG.

NJZ015>026-170800-
SOUTHERN NEW JERSEY
  
CITY           SKY/WX    TMP DP  RH WIND       PRES   REMARKS
POMONA         CLOUDY    70  67  90 CALM      30.04S                  
WILDWOOD*      CLOUDY    71  69  93 NE5       30.03S                  
MILLVILLE      CLOUDY   N/A N/A N/A E3        30.03S                  
WRIGHTSTOWN    FAIR      67  66  95 NE6       30.05S                  
MOUNT HOLLY    CLOUDY    65  63  93 CALM      30.05S                  
TRENTON        CLOUDY    67  64  90 NE3       30.06S                  

$$
NJZ001>014-170800-
NORTHERN NEW JERSEY
  
CITY           SKY/WX    TMP DP  RH WIND       PRES   REMARKS
SUSSEX         FAIR      54  52  93 CALM      30.11S FOG              
ANDOVER*         N/A     58  57  97 CALM      30.11R                  
MORRISTOWN     CLOUDY    61  61 100 CALM      30.09R                  
NEWARK         MOCLDY    68  51  54 NE8       30.08R                  
TETERBORO      MOCLDY    65  58  78 N3        30.08R                  
CALDWELL       FAIR      62  60  93 CALM      30.10R                  
SOMERVILLE     MOCLDY    64  60  87 CALM      30.06S                  
ALLAIRE*       CLOUDY    69  54  58 NE6       30.07S                  
TOMS RIVER*    CLOUDY    68  32  26 E6        30.06S                  

$$
PAZ043-044-047-054-055-060>062-066>071-170800-
EASTERN PENNSYLVANIA
  
CITY           SKY/WX    TMP DP  RH WIND       PRES   REMARKS
PHILADELPHIA   MOCLDY    69  63  81 NE7       30.05S                  
NORTH PHILA    CLOUDY    71  63  75 NE3       30.07R                  
BLUE BELL*     MOCLDY    66  62  87 CALM      30.06F                  
DOYLESTOWN     FAIR      65  60  84 NE5       30.06S                  
QUAKERTOWN*    CLEAR     63  59  88 CALM      30.08                   
PERKASIE*      PTSUNNY   63  61  94 N6        30.09S                  
POTTSTOWN      MOCLDY    65  59  81 N7        30.08S                  
LANCASTER      MOCLDY    68  63  84 NE7       30.07R                  
COATESVILLE    FAIR      66  64  94 NE3       30.08S                  
WEST CHESTER   FAIR      68  61  77 NE3       30.07R                  
READING        NOT AVBL                                               
ALLENTOWN      FAIR      62  53  72 NE6       30.08F                  
QN CITY/ALNTWN FAIR      63  55  77 NE7       30.09S                  
MOUNT POCONO   FAIR      54  47  77 NE5       30.13S                  
HAZLETON       FAIR      55  46  71 CALM      30.15S                  
LEHIGHTON      FAIR      52  52 100 CALM      30.11S FOG              
WILKES BARRE   FAIR      55  51  86 E5        30.12F                  

$$
DEZALL-MDZ008-012-015-019-020-170800-
DELAWARE AND EASTERN MARYLAND
  
CITY           SKY/WX    TMP DP  RH WIND       PRES   REMARKS
WILMINGTON     FAIR      70  66  87 NE6       30.05R                  
DOVER          FAIR      71  69  93 NE9       30.02S                  
CHESWOLD       CLOUDY    70  68  94 NE6       30.03S                  
GEORGETOWN     MOCLDY    72  69  90 E5        30.01F                  
EASTON         MOCLDY    71  68  89 E5        30.04F                  
STEVENSVILLE   CLOUDY    72  68  88 NE5       30.01S                  
PATUXENT       MOCLDY    72  69  90 CALM      29.99S                  
OCEAN CITY     MOCLDY    74  71  91 E5        30.01S                  
WALLOPS ISLAND MOCLDY    71  69  93 N3        29.99F                  
CAMBRIDGE      CLOUDY    72  68  88 CALM      30.00S                  
SALISBURY      MOCLDY    69  66  90 NE5       30.00S                  

$$
PAZ001-021-NYZ056-072-MDZ011-DCZ001-170800-
OTHER NEARBY LOCATIONS
  
CITY           SKY/WX    TMP DP  RH WIND       PRES   REMARKS
HARRISBURG     MOCLDY    69  61  75 CALM      30.06S                  
STATE COLLEGE  FAIR      62  61  97 NE7       30.12S                  
WILLIAMSPORT   FAIR      59  55  87 CALM      30.11S                  
BINGHAMTON     FAIR      51  46  83 NE7       30.15S                  
NEW YORK CITY  MOCLDY    66  50  56 NE6       30.11S                  
BALTIMORE      CLOUDY    75  64  68 NE6       30.02R                  
WASHINGTON DC  CLOUDY    76  65  68 NE10      30.01F                  

$$